Location: Unspecified
(0.0000°N, 0.0000°E)
Time: 19:38:58
(UTC+00:00)

Vanguard 3 - Pass Details

Date: 03 October 2023
Orbit: 507 x 3241 km, 33.3° (Epoch: 29 November)

Event Time Altitude Azimuth Distance (km) Brightness Sun altitude
Rises 13:13:17 0° 236° (SW) 6,568 12.1 68.6°
Reaches altitude 10° 13:17:15 10° 236° (WSW) 5,779 12.0 67.6°
Maximum altitude 13:36:40 83° 322° (NW) 3,238 11.7 62.8°
Drops below altitude 10° 13:54:29 10° 50° (NE) 5,368 11.2 58.4°
Sets 13:58:02 0° 51° (NE) 6,103 11.3 57.5°
